Regional Weather Roundup
Issued by NWS

Home | Current Version | Previous Version | Graphics & Text | Print | Product List | Glossary On
Versions: 1 2 3 4 5 6 7 8 9 10 11 12 13 14 15 16 17 18 19 20 21 22 23 24 25 26 27 28 29 30 31 32 33 34 35 36 37 38 39 40 41 42 43 44 45 46 47 48 49 50
000
ASUS45 KABQ 051201
RWRNM
WEATHER ROUNDUP FOR NEW MEXICO
NATIONAL WEATHER SERVICE ALBUQUERQUE NM
600 AM MDT TUE MAY 05 2015

NOTE: "FAIR" MEANS FEW OR NO CLOUDS BELOW 12,000 FEET AGL WITH NO
       SIGNIFICANT WEATHER OR OBSTRUCTIONS TO VISION.

      THIS PRODUCT IS RELEASED AS TWO VERSIONS.  ONE VERSION NEAR
      THE TOP OF THE HOUR CONTAINING PRELIMINARY DATA FROM ALBUQUERQUE
      AND OTHER STATIONS.  A FINAL VERSION WITH ADDITIONAL DATA IS
      ISSUED ABOUT 10 MINUTES AFTER THE HOUR.

NMZ501-503-504-510>518-051300-
NORTHWEST PLATEAU/NORTHCENTRAL MOUNTAINS

CITY           SKY/WX    TMP DP  RH WIND       PRES   REMARKS
FARMINGTON     LGT RAIN  49  47  93 CALM      29.91F
6HR MIN TEMP:  49; 6HR MAX TEMP:  54; 6HR PCP:  0.04;

SANTA FE       CLOUDY    46  42  86 CALM      29.96F
6HR MIN TEMP:  45; 6HR MAX TEMP:  50; 6HR PCP:  0.06;

TAOS           CLOUDY    41  34  75 NE5       29.97F

$$
NMZ402-403-502-505>509-051300-
WESTCENTRAL MOUNTAINS/SOUTHWEST MOUNTAINS

CITY           SKY/WX    TMP DP  RH WIND       PRES   REMARKS
GALLUP         LGT RAIN  45  41  86 CALM      29.97F
6HR MIN TEMP:  43; 6HR MAX TEMP:  47; 6HR PCP:  0.01;

GRANTS         CLOUDY    42  42  99 SE8       29.98S
SILVER CITY      N/A     45  37  76 NW6       30.00S

$$
NMZ407-409-411-412-051300-
SOUTHERN DESERTS

CITY           SKY/WX    TMP DP  RH WIND       PRES   REMARKS
DEMING         CLEAR     48  41  76 SW5       29.96S
6HR MIN TEMP:  47; 6HR MAX TEMP:  60;

ALAMOGORDO     PTCLDY    48  48 100 SE7       29.91S FOG
T OR C         CLOUDY    50  41  71 S5        29.94R
6HR MIN TEMP:  50; 6HR MAX TEMP:  59;


$$
NMZ519>523-051300-
CENTRAL VALLEYS/CENTRAL HIGHLANDS

CITY           SKY/WX    TMP DP  RH WIND       PRES   REMARKS
ALBUQUERQUE    CLOUDY    51  48  89 S8        29.94F
6HR MIN TEMP:  50; 6HR MAX TEMP:  56;

DOUBLE EAGLE   MOCLDY    48  46  93 CALM      29.96S
MORIARTY ARPT  CLOUDY    46  43  92 CALM      29.98S
6HR MIN TEMP:  44; 6HR MAX TEMP:  49;

CLINES CORNERS CLOUDY    44  41  89 NE6       29.96F
6HR MIN TEMP:  42; 6HR MAX TEMP:  47;

BELEN          FAIR      46  43  91 SW7       29.95S
6HR MIN TEMP:  45; 6HR MAX TEMP:  52;

SOCORRO        NOT AVBL

$$
NMZ524>526-539-540-051300-
SOUTHCENTRAL MOUNTAINS

CITY           SKY/WX    TMP DP  RH WIND       PRES   REMARKS
RUIDOSO        NOT AVBL

$$
NMZ527>531-051300-
NORTHEAST HIGHLANDS/NORTHEAST PLAINS

CITY           SKY/WX    TMP DP  RH WIND       PRES   REMARKS
LAS VEGAS      CLOUDY    42  38  85 N8        29.97F
6HR MIN TEMP:  41; 6HR MAX TEMP:  44; 6HR PCP:  0.55;

RATON          LGT RAIN  49  46  90 NE7       29.96F
6HR MIN TEMP:  48; 6HR MAX TEMP:  51; 6HR PCP:  0.49;

CLAYTON        CLOUDY    52  51  97 S6        29.94S
6HR MIN TEMP:  52; 6HR MAX TEMP:  54; 6HR PCP:  0.16;


$$
NMZ532>537-051300-
EASTCENTRAL PLAINS

CITY           SKY/WX    TMP DP  RH WIND       PRES   REMARKS
TUCUMCARI      RAIN      55  53  93 SE3       29.92R FOG
6HR MIN TEMP:  55; 6HR MAX TEMP:  58; 6HR PCP:  0.03;

CANNON AFB     NOT AVBL
CLOVIS AIRPORT CLOUDY    54  52  94 CALM        N/A

$$
NMZ028-029-538-051300-
SOUTHEAST PLAINS

CITY           SKY/WX    TMP DP  RH WIND       PRES   REMARKS
ROSWELL        PTCLDY    56  53  90 W7        29.88S
6HR MIN TEMP:  56; 6HR MAX TEMP:  58; 6HR PCP:  0.50;

ARTESIA        CLEAR     55  55 100 W8        29.90R
CARLSBAD       CLEAR     58  55  90 NW8       29.87R
6HR MIN TEMP:  58; 6HR MAX TEMP:  64; 6HR PCP:  1.43;

HOBBS          MOCLDY    55  55 100 N14       29.86F


$$


USA.gov is the U.S. government's official web portal to all federal, state and local government web resources and services.